Location: Bemmer
(51.5498°N, 5.6249°E)
Time: 17:28:07
(UTC+00:00)

Aureole 2 Rocket - Pass Details

Date: 03 March 2021
Orbit: 276 x 344 km, 73.9° (Epoch: 12 April)

Event Time Altitude Azimuth Distance (km) Brightness Sun altitude
Rises 19:01:55 0° 322° (NW) 1,990 6.5 -16.3°
Reaches altitude 10° 19:04:08 10° 303° (WNW) 1,147 5.5 -16.7°
Maximum altitude 19:05:59 18° 255° (WSW) 786 4.5 -17.0°
Drops below altitude 10° 19:07:46 10° 207° (SSW) 1,118 4.6 -17.2°
Enters shadow 19:08:56 - 193° (SSW) 1,530 5.1 -17.4°
